EWG4R EDDK-LFMN

Flight info

Callsign EWG4R
Flight time 1h 36m
Altitude 34000
Route KUMIK1R KUMIK Y854 BOMBI DCT GIGET DCT ABUKA DCT KRH DCT NATOR/N0436F350 DCT TRA DCT RIPUS DCT GERSA DCT SOSON DCT ODINA DCT ENOBA Z185 ASBOP/N0358F190 Z185 BORDI
Aircraft A320/M-SDE3FGHIRWY/LB1

Departure

Time 2026-04-21 14:42
Airport Cologne Bonn Airport (EDDK)

Arrival

Time 2026-04-21 16:19
Airport Nice-Côte d'Azur Airport (LFMN)
Time Latitude Longitude Altitude Speed Heading
2026-04-21 14:12 50.88080 7.12139 235 ft 0 kts 216°
2026-04-21 14:31 50.88094 7.12155 236 ft 4 kts 212°
2026-04-21 14:31 50.88115 7.12177 235 ft 4 kts 215°
2026-04-21 14:31 50.88135 7.12188 236 ft 4 kts 144°
2026-04-21 14:31 50.88152 7.12157 232 ft 4 kts 123°
2026-04-21 14:32 50.88157 7.12146 232 ft 0 kts 126°
2026-04-21 14:34 50.88156 7.12146 232 ft 1 kts 126°
2026-04-21 14:34 50.88143 7.12175 233 ft 6 kts 126°
2026-04-21 14:35 50.88109 7.12249 233 ft 11 kts 123°
2026-04-21 14:35 50.88073 7.12379 232 ft 15 kts 127°
2026-04-21 14:35 50.87988 7.12514 232 ft 16 kts 138°
2026-04-21 14:35 50.87898 7.12610 232 ft 17 kts 175°
2026-04-21 14:36 50.87777 7.12687 232 ft 22 kts 139°
2026-04-21 14:36 50.87655 7.12863 232 ft 26 kts 137°
2026-04-21 14:36 50.87514 7.13068 232 ft 28 kts 138°
2026-04-21 14:36 50.87382 7.13259 232 ft 24 kts 137°
2026-04-21 14:37 50.87250 7.13450 234 ft 25 kts 137°
2026-04-21 14:37 50.87118 7.13642 239 ft 27 kts 137°
2026-04-21 14:37 50.86978 7.13844 245 ft 26 kts 138°
2026-04-21 14:37 50.86880 7.13985 254 ft 14 kts 137°
2026-04-21 14:38 50.86812 7.14084 255 ft 13 kts 137°
2026-04-21 14:38 50.86732 7.14147 256 ft 12 kts 151°
2026-04-21 14:38 50.86678 7.14217 259 ft 10 kts 137°
2026-04-21 14:38 50.86625 7.14294 261 ft 12 kts 137°
2026-04-21 14:39 50.86553 7.14400 262 ft 16 kts 137°
2026-04-21 14:39 50.86469 7.14520 268 ft 16 kts 137°
2026-04-21 14:39 50.86383 7.14645 273 ft 18 kts 137°
2026-04-21 14:39 50.86289 7.14781 278 ft 19 kts 137°
2026-04-21 14:40 50.86190 7.14924 284 ft 20 kts 137°
2026-04-21 14:40 50.86084 7.15078 288 ft 21 kts 137°
2026-04-21 14:40 50.86060 7.15288 292 ft 22 kts 59°
2026-04-21 14:40 50.86199 7.15343 291 ft 20 kts 347°
2026-04-21 14:41 50.86349 7.15298 287 ft 22 kts 351°
2026-04-21 14:41 50.86421 7.15265 283 ft 0 kts 319°
2026-04-21 14:41 50.86436 7.15244 283 ft 23 kts 319°
2026-04-21 14:41 50.86765 7.14768 268 ft 100 kts 317°
2026-04-21 14:42 50.87434 7.13803 246 ft 157 kts 318°
2026-04-21 14:42 50.88270 7.12603 717 ft 166 kts 319°
2026-04-21 14:42 50.88857 7.11783 1161 ft 175 kts 324°
2026-04-21 14:42 50.89989 7.10996 1653 ft 184 kts
2026-04-21 14:43 50.91180 7.11647 2271 ft 176 kts 33°
2026-04-21 14:43 50.92586 7.12980 3078 ft 185 kts 29°
2026-04-21 14:43 50.93336 7.13709 3309 ft 197 kts 43°
2026-04-21 14:43 50.94086 7.15593 3799 ft 210 kts 68°
2026-04-21 14:44 50.94672 7.17760 4474 ft 219 kts 63°
2026-04-21 14:44 50.95381 7.20010 5034 ft 236 kts 62°
2026-04-21 14:44 50.96151 7.22369 5747 ft 246 kts 63°
2026-04-21 14:44 50.96950 7.24822 6511 ft 254 kts 63°
2026-04-21 14:45 50.97770 7.27349 7329 ft 259 kts 64°
2026-04-21 14:45 50.98585 7.29918 8208 ft 262 kts 64°
2026-04-21 14:45 50.99398 7.32515 9065 ft 265 kts 64°
2026-04-21 14:45 51.00222 7.35161 9923 ft 268 kts 64°
2026-04-21 14:46 51.01023 7.37819 10633 ft 274 kts 69°
2026-04-21 14:46 51.01522 7.40874 10879 ft 297 kts 83°
2026-04-21 14:46 51.01519 7.44262 11263 ft 314 kts 96°
2026-04-21 14:46 51.01016 7.47678 11933 ft 321 kts 106°
2026-04-21 14:47 51.00349 7.51040 12663 ft 324 kts 105°
2026-04-21 14:47 50.99676 7.54482 13399 ft 328 kts 105°
2026-04-21 14:47 50.98997 7.57968 14119 ft 331 kts 105°
2026-04-21 14:47 50.98313 7.61484 14776 ft 334 kts 105°
2026-04-21 14:48 50.97630 7.64987 15411 ft 337 kts 105°
2026-04-21 14:48 50.96927 7.68560 16059 ft 340 kts 105°
2026-04-21 14:48 50.96212 7.72169 16709 ft 343 kts 105°
2026-04-21 14:48 50.95501 7.75757 17331 ft 346 kts 105°
2026-04-21 14:49 50.94772 7.79432 17963 ft 350 kts 106°
2026-04-21 14:49 50.93801 7.82996 18558 ft 355 kts 117°
2026-04-21 14:49 50.92454 7.86328 19095 ft 360 kts 121°
2026-04-21 14:49 50.91073 7.89612 19623 ft 363 kts 121°
2026-04-21 14:50 50.89668 7.92960 20149 ft 367 kts 121°
2026-04-21 14:50 50.88244 7.96358 20675 ft 370 kts 121°
2026-04-21 14:50 50.86811 7.99783 21207 ft 374 kts 121°
2026-04-21 14:50 50.85385 8.03192 21718 ft 377 kts 121°
2026-04-21 14:51 50.83715 8.06506 22216 ft 384 kts 131°
2026-04-21 14:51 50.81713 8.09274 22708 ft 390 kts 142°
2026-04-21 14:51 50.79420 8.11627 23210 ft 395 kts 145°
2026-04-21 14:51 50.77084 8.13969 23687 ft 399 kts 145°
2026-04-21 14:52 50.74728 8.16341 24076 ft 402 kts 145°
2026-04-21 14:52 50.72353 8.18738 24461 ft 406 kts 145°
2026-04-21 14:52 50.69989 8.21124 24835 ft 409 kts 145°
2026-04-21 14:52 50.67578 8.23552 25200 ft 412 kts 145°
2026-04-21 14:53 50.65147 8.25990 25570 ft 415 kts 145°
2026-04-21 14:53 50.62692 8.28443 25929 ft 419 kts 145°
2026-04-21 14:53 50.60225 8.30906 26279 ft 422 kts 145°
2026-04-21 14:53 50.57732 8.33393 26618 ft 425 kts 146°
2026-04-21 14:54 50.55254 8.35871 26954 ft 428 kts 146°
2026-04-21 14:54 50.52736 8.38388 27289 ft 431 kts 146°
2026-04-21 14:54 50.50196 8.40916 27624 ft 433 kts 146°
2026-04-21 14:54 50.47630 8.43466 27948 ft 436 kts 146°
2026-04-21 14:55 50.45057 8.46019 28281 ft 439 kts 146°
2026-04-21 14:55 50.42453 8.48601 28594 ft 442 kts 146°
2026-04-21 14:55 50.39838 8.51186 28893 ft 445 kts 146°
2026-04-21 14:55 50.37236 8.53734 29183 ft 448 kts 148°
2026-04-21 14:56 50.34531 8.56196 29477 ft 451 kts 150°
2026-04-21 14:56 50.31748 8.58549 29755 ft 453 kts 151°
2026-04-21 14:56 50.28959 8.60807 30021 ft 456 kts 152°
2026-04-21 14:56 50.26116 8.63081 30292 ft 459 kts 152°
2026-04-21 14:57 50.23268 8.65375 30510 ft 461 kts 152°
2026-04-21 14:57 50.20420 8.67709 30719 ft 463 kts 152°
2026-04-21 14:57 50.17563 8.70086 30937 ft 465 kts 151°
2026-04-21 14:57 50.14707 8.72481 31138 ft 467 kts 151°
2026-04-21 14:58 50.11875 8.74855 31333 ft 469 kts 152°
2026-04-21 14:58 50.08902 8.76976 31584 ft 469 kts 160°
2026-04-21 14:58 50.05766 8.78350 31864 ft 468 kts 170°
2026-04-21 14:58 50.02521 8.78928 32136 ft 467 kts 180°
2026-04-21 14:59 49.99319 8.78706 32400 ft 466 kts 189°
2026-04-21 14:59 49.96103 8.78018 32659 ft 466 kts 189°
2026-04-21 14:59 49.92872 8.77338 32922 ft 466 kts 189°
2026-04-21 14:59 49.89690 8.76683 33182 ft 467 kts 189°
2026-04-21 15:00 49.86464 8.76027 33446 ft 467 kts 189°
2026-04-21 15:00 49.83233 8.75372 33690 ft 467 kts 189°
2026-04-21 15:00 49.80000 8.74710 33942 ft 468 kts 189°
2026-04-21 15:00 49.76760 8.74037 34156 ft 469 kts 189°
2026-04-21 15:01 49.73537 8.73368 34191 ft 464 kts 189°
2026-04-21 15:01 49.67188 8.72069 34189 ft 461 kts 189°
2026-04-21 15:02 49.60811 8.70787 34197 ft 461 kts 189°
2026-04-21 15:02 49.54484 8.69523 34191 ft 461 kts 189°
2026-04-21 15:03 49.48124 8.68236 34198 ft 461 kts 190°
2026-04-21 15:03 49.41739 8.66944 34189 ft 461 kts 190°
2026-04-21 15:04 49.35417 8.65660 34192 ft 461 kts 190°
2026-04-21 15:04 49.29043 8.64381 34185 ft 461 kts 190°
2026-04-21 15:05 49.22710 8.63114 34187 ft 461 kts 190°
2026-04-21 15:05 49.13160 8.61198 34179 ft 460 kts 191°
2026-04-21 15:06 49.06819 8.59928 34169 ft 459 kts 191°
2026-04-21 15:06 49.00504 8.58672 34166 ft 459 kts 191°
2026-04-21 15:07 48.94230 8.57066 34159 ft 456 kts 195°
2026-04-21 15:07 48.88029 8.54931 34157 ft 455 kts 197°
2026-04-21 15:08 48.81887 8.52773 34154 ft 456 kts 197°
2026-04-21 15:08 48.75678 8.50732 34150 ft 456 kts 197°
2026-04-21 15:09 48.69457 8.48765 34143 ft 456 kts 197°
2026-04-21 15:09 48.63244 8.46802 34135 ft 456 kts 197°
2026-04-21 15:10 48.57060 8.44824 34133 ft 456 kts 197°
2026-04-21 15:10 48.50824 8.42828 34130 ft 457 kts 197°
2026-04-21 15:11 48.44633 8.40855 34130 ft 457 kts 198°
2026-04-21 15:11 48.38380 8.38872 34129 ft 457 kts 198°
2026-04-21 15:12 48.32181 8.36918 34134 ft 457 kts 198°
2026-04-21 15:12 48.25946 8.34961 34122 ft 457 kts 198°
2026-04-21 15:13 48.19752 8.33044 34114 ft 458 kts 195°
2026-04-21 15:13 48.13303 8.33003 34111 ft 472 kts 176°
2026-04-21 15:14 48.06804 8.34583 34100 ft 472 kts 176°
2026-04-21 15:14 48.00331 8.36170 34095 ft 472 kts 176°
2026-04-21 15:15 47.93866 8.37738 34089 ft 473 kts 176°
2026-04-21 15:15 47.87365 8.39299 34084 ft 473 kts 176°
2026-04-21 15:16 47.80829 8.40863 34077 ft 474 kts 176°
2026-04-21 15:16 47.74318 8.42425 34073 ft 475 kts 177°
2026-04-21 15:17 47.67812 8.43958 34070 ft 474 kts 178°
2026-04-21 15:17 47.61266 8.45056 34062 ft 471 kts 181°
2026-04-21 15:18 47.54712 8.45858 34055 ft 471 kts 182°
2026-04-21 15:18 47.48200 8.46709 34056 ft 472 kts 181°
2026-04-21 15:19 47.41649 8.47688 34058 ft 473 kts 181°
2026-04-21 15:19 47.35085 8.48686 34050 ft 473 kts 181°
2026-04-21 15:20 47.28552 8.49644 34054 ft 473 kts 182°
2026-04-21 15:20 47.21991 8.50588 34037 ft 473 kts 182°
2026-04-21 15:21 47.15463 8.51539 34031 ft 474 kts 182°
2026-04-21 15:21 47.08876 8.52502 34034 ft 474 kts 182°
2026-04-21 15:22 47.02297 8.53450 34030 ft 474 kts 182°
2026-04-21 15:22 46.95765 8.54394 34043 ft 473 kts 182°
2026-04-21 15:23 46.89239 8.55340 34038 ft 471 kts 182°
2026-04-21 15:23 46.82700 8.56272 34048 ft 471 kts 183°
2026-04-21 15:24 46.76155 8.57206 34046 ft 471 kts 183°
2026-04-21 15:24 46.69664 8.58134 34029 ft 471 kts 183°
2026-04-21 15:25 46.63137 8.59060 34006 ft 470 kts 183°
2026-04-21 15:25 46.56661 8.59989 33999 ft 470 kts 182°
2026-04-21 15:26 46.50154 8.60915 33975 ft 468 kts 182°
2026-04-21 15:26 46.43662 8.61831 33944 ft 467 kts 182°
2026-04-21 15:27 46.37221 8.62736 33929 ft 467 kts 182°
2026-04-21 15:27 46.30748 8.63647 33926 ft 466 kts 182°
2026-04-21 15:28 46.24330 8.64547 33918 ft 465 kts 182°
2026-04-21 15:28 46.17893 8.65453 33919 ft 464 kts 182°
2026-04-21 15:29 46.11470 8.66284 33901 ft 458 kts 186°
2026-04-21 15:29 46.05273 8.65447 33920 ft 447 kts 197°
2026-04-21 15:30 45.99114 8.64167 33924 ft 446 kts 196°
2026-04-21 15:30 45.92992 8.62922 33919 ft 445 kts 196°
2026-04-21 15:31 45.87834 8.61877 33917 ft 445 kts 196°
2026-04-21 15:31 45.81734 8.60643 33915 ft 445 kts 196°
2026-04-21 15:32 45.75593 8.59399 33912 ft 445 kts 196°
2026-04-21 15:32 45.69447 8.58139 33921 ft 445 kts 196°
2026-04-21 15:33 45.63344 8.56901 33922 ft 445 kts 196°
2026-04-21 15:33 45.57198 8.55666 33917 ft 445 kts 196°
2026-04-21 15:34 45.51080 8.54442 33929 ft 445 kts 196°
2026-04-21 15:34 45.44973 8.53209 33925 ft 445 kts 196°
2026-04-21 15:35 45.38841 8.51978 33917 ft 445 kts 196°
2026-04-21 15:35 45.32691 8.50759 33907 ft 445 kts 196°
2026-04-21 15:36 45.26569 8.49545 33897 ft 445 kts 196°
2026-04-21 15:36 45.20405 8.48313 33892 ft 446 kts 196°
2026-04-21 15:37 45.14290 8.47093 33890 ft 446 kts 196°
2026-04-21 15:37 45.08133 8.45878 33890 ft 446 kts 196°
2026-04-21 15:38 45.02022 8.44672 33895 ft 446 kts 196°
2026-04-21 15:38 44.95859 8.43453 33893 ft 446 kts 195°
2026-04-21 15:39 44.89697 8.42253 33895 ft 446 kts 196°
2026-04-21 15:39 44.83563 8.41047 33753 ft 447 kts 195°
2026-04-21 15:40 44.80484 8.40440 33464 ft 445 kts 195°
2026-04-21 15:40 44.77425 8.39840 33184 ft 442 kts 195°
2026-04-21 15:40 44.74420 8.39253 32912 ft 440 kts 195°
2026-04-21 15:40 44.71382 8.38663 32639 ft 438 kts 195°
2026-04-21 15:41 44.68366 8.38079 32331 ft 435 kts 195°
2026-04-21 15:41 44.65362 8.37498 31773 ft 432 kts 195°
2026-04-21 15:41 44.62427 8.36926 31240 ft 429 kts 195°
2026-04-21 15:41 44.59468 8.36345 30712 ft 427 kts 195°
2026-04-21 15:42 44.56521 8.35767 30184 ft 425 kts 195°
2026-04-21 15:42 44.53593 8.35196 29612 ft 423 kts 195°
2026-04-21 15:42 44.50717 8.34639 29106 ft 419 kts 195°
2026-04-21 15:42 44.47835 8.34086 28596 ft 414 kts 195°
2026-04-21 15:43 44.44984 8.33541 28106 ft 410 kts 195°
2026-04-21 15:43 44.42166 8.33002 27620 ft 407 kts 195°
2026-04-21 15:43 44.39363 8.32461 27149 ft 404 kts 195°
2026-04-21 15:43 44.36615 8.31932 26697 ft 401 kts 195°
2026-04-21 15:44 44.33916 8.31194 26247 ft 389 kts 205°
2026-04-21 15:44 44.31456 8.29797 25817 ft 375 kts 216°
2026-04-21 15:44 44.29305 8.27839 25395 ft 362 kts 227°
2026-04-21 15:44 44.27532 8.25485 24997 ft 351 kts 237°
2026-04-21 15:45 44.26085 8.22791 24602 ft 342 kts 243°
2026-04-21 15:45 44.24738 8.20062 24194 ft 339 kts 242°
2026-04-21 15:45 44.23399 8.17366 23791 ft 335 kts 242°
2026-04-21 15:45 44.22088 8.14729 23363 ft 334 kts 242°
2026-04-21 15:46 44.20769 8.12076 22931 ft 331 kts 242°
2026-04-21 15:46 44.19459 8.09448 22524 ft 327 kts 242°
2026-04-21 15:46 44.18162 8.06855 22121 ft 323 kts 242°
2026-04-21 15:46 44.16900 8.04332 21727 ft 318 kts 242°
2026-04-21 15:47 44.15640 8.01813 21348 ft 315 kts 242°
2026-04-21 15:47 44.14391 7.99310 20956 ft 314 kts 243°
2026-04-21 15:47 44.13148 7.96807 20545 ft 314 kts 242°
2026-04-21 15:47 44.11902 7.94312 20106 ft 312 kts 243°
2026-04-21 15:48 44.10682 7.91885 19711 ft 310 kts 242°
2026-04-21 15:48 44.09446 7.89427 19292 ft 309 kts 243°
2026-04-21 15:48 44.08220 7.86975 18891 ft 308 kts 243°
2026-04-21 15:48 44.06998 7.84530 18483 ft 308 kts 243°
2026-04-21 15:49 44.05766 7.82071 18060 ft 309 kts 242°
2026-04-21 15:49 44.04545 7.79642 17631 ft 309 kts 242°
2026-04-21 15:49 44.03314 7.77206 17225 ft 306 kts 242°
2026-04-21 15:49 44.02089 7.74786 16825 ft 304 kts 242°
2026-04-21 15:50 44.00859 7.72338 16716 ft 314 kts 242°
2026-04-21 15:50 43.99596 7.69818 16581 ft 319 kts 242°
2026-04-21 15:50 43.98327 7.67286 16429 ft 319 kts 241°
2026-04-21 15:50 43.97073 7.64790 16279 ft 319 kts 241°
2026-04-21 15:51 43.95797 7.62268 16130 ft 318 kts 241°
2026-04-21 15:51 43.94523 7.59755 15980 ft 319 kts 241°
2026-04-21 15:51 43.93245 7.57235 15823 ft 319 kts 241°
2026-04-21 15:51 43.91962 7.54704 15680 ft 319 kts 241°
2026-04-21 15:52 43.90704 7.52227 15516 ft 316 kts 241°
2026-04-21 15:52 43.89437 7.49740 15364 ft 315 kts 241°
2026-04-21 15:52 43.88176 7.47261 15217 ft 315 kts 241°
2026-04-21 15:52 43.86909 7.44760 15070 ft 333 kts 241°
2026-04-21 15:53 43.85350 7.42185 14892 ft 363 kts 224°
2026-04-21 15:53 43.83040 7.40568 14720 ft 383 kts 199°
2026-04-21 15:53 43.80348 7.40258 14493 ft 393 kts 180°
2026-04-21 15:53 43.77690 7.41044 14258 ft 400 kts 161°
2026-04-21 15:54 43.75279 7.42997 14031 ft 405 kts 143°
2026-04-21 15:54 43.73117 7.45491 13787 ft 404 kts 141°
2026-04-21 15:54 43.70979 7.48011 13528 ft 403 kts 141°
2026-04-21 15:54 43.68857 7.50531 13263 ft 401 kts 141°
2026-04-21 15:55 43.66743 7.53041 13000 ft 399 kts 141°
2026-04-21 15:55 43.64637 7.55534 12736 ft 397 kts 141°
2026-04-21 15:55 43.62540 7.58005 12484 ft 395 kts 141°
2026-04-21 15:55 43.60476 7.60425 12227 ft 393 kts 141°
2026-04-21 15:56 43.58387 7.62859 11964 ft 390 kts 141°
2026-04-21 15:56 43.56314 7.65269 11719 ft 388 kts 141°
2026-04-21 15:56 43.54253 7.67668 11466 ft 386 kts 141°
2026-04-21 15:56 43.52210 7.70048 11216 ft 384 kts 141°
2026-04-21 15:57 43.50173 7.72423 10968 ft 382 kts 141°
2026-04-21 15:57 43.48177 7.74750 10732 ft 380 kts 141°
2026-04-21 15:57 43.46135 7.77123 10486 ft 378 kts 141°
2026-04-21 15:57 43.44151 7.79420 10249 ft 376 kts 141°
2026-04-21 15:58 43.42157 7.81730 10012 ft 374 kts 141°
2026-04-21 15:58 43.40128 7.83967 9810 ft 371 kts 146°
2026-04-21 15:58 43.37980 7.85928 9688 ft 370 kts 149°
2026-04-21 15:58 43.35778 7.87757 9557 ft 369 kts 152°
2026-04-21 15:59 43.33536 7.89482 9419 ft 367 kts 154°
2026-04-21 15:59 43.31259 7.91051 9290 ft 365 kts 157°
2026-04-21 15:59 43.28925 7.92430 9154 ft 363 kts 161°
2026-04-21 15:59 43.26579 7.93574 9037 ft 362 kts 165°
2026-04-21 16:00 43.24162 7.94526 8904 ft 360 kts 168°
2026-04-21 16:00 43.21724 7.95286 8771 ft 358 kts 172°
2026-04-21 16:00 43.19265 7.95864 8640 ft 356 kts 175°
2026-04-21 16:00 43.16806 7.96209 8512 ft 353 kts 183°
2026-04-21 16:01 43.14456 7.95659 8374 ft 343 kts 205°
2026-04-21 16:01 43.12467 7.93977 8249 ft 334 kts 226°
2026-04-21 16:01 43.11051 7.91520 8121 ft 326 kts 246°
2026-04-21 16:01 43.10333 7.88595 7999 ft 323 kts 258°
2026-04-21 16:02 43.09829 7.85642 7880 ft 322 kts 259°
2026-04-21 16:02 43.09330 7.82615 7744 ft 335 kts 259°
2026-04-21 16:02 43.08803 7.79343 7630 ft 365 kts 259°
2026-04-21 16:02 43.08256 7.75910 7500 ft 370 kts 259°
2026-04-21 16:03 43.07717 7.72511 7376 ft 369 kts 259°
2026-04-21 16:03 43.07173 7.69071 7259 ft 369 kts 259°
2026-04-21 16:03 43.06631 7.65628 7128 ft 368 kts 259°
2026-04-21 16:03 43.06125 7.62234 7006 ft 367 kts 263°
2026-04-21 16:04 43.06198 7.58767 6878 ft 364 kts 282°
2026-04-21 16:04 43.06953 7.55445 6763 ft 364 kts 289°
2026-04-21 16:04 43.07793 7.52164 6647 ft 364 kts 290°
2026-04-21 16:04 43.08736 7.49000 6523 ft 363 kts 293°
2026-04-21 16:05 43.09744 7.45825 6407 ft 363 kts 293°
2026-04-21 16:05 43.10756 7.42655 6286 ft 363 kts 293°
2026-04-21 16:05 43.11761 7.39507 5790 ft 356 kts 293°
2026-04-21 16:05 43.12758 7.36406 4904 ft 354 kts 293°
2026-04-21 16:06 43.13752 7.33359 4256 ft 353 kts 293°
2026-04-21 16:06 43.14733 7.30369 4064 ft 333 kts 293°
2026-04-21 16:06 43.15740 7.27623 3990 ft 311 kts 298°
2026-04-21 16:06 43.16790 7.25142 3999 ft 289 kts 299°
2026-04-21 16:07 43.17810 7.22915 4005 ft 270 kts 302°
2026-04-21 16:07 43.18823 7.20825 4003 ft 259 kts 302°
2026-04-21 16:07 43.19823 7.18775 4009 ft 258 kts 302°
2026-04-21 16:07 43.20821 7.16732 4012 ft 257 kts 302°
2026-04-21 16:08 43.22730 7.12838 4001 ft 231 kts 302°
2026-04-21 16:08 43.23618 7.11029 4002 ft 227 kts 302°
2026-04-21 16:08 43.24501 7.09230 4005 ft 227 kts 302°
2026-04-21 16:09 43.25390 7.07470 4010 ft 227 kts 308°
2026-04-21 16:09 43.26565 7.06011 4012 ft 229 kts 320°
2026-04-21 16:09 43.27840 7.04687 4011 ft 229 kts 321°
2026-04-21 16:09 43.29126 7.03378 4005 ft 229 kts 321°
2026-04-21 16:10 43.30393 7.02087 4001 ft 219 kts 321°
2026-04-21 16:10 43.31561 7.00902 4003 ft 202 kts 321°
2026-04-21 16:10 43.32649 6.99804 4043 ft 184 kts 321°
2026-04-21 16:10 43.33663 6.98785 4009 ft 178 kts 321°
2026-04-21 16:11 43.34659 6.97783 4001 ft 176 kts 321°
2026-04-21 16:11 43.35648 6.96785 4002 ft 176 kts 321°
2026-04-21 16:11 43.36621 6.95803 4001 ft 176 kts 323°
2026-04-21 16:11 43.37742 6.95101 4001 ft 179 kts 340°
2026-04-21 16:12 43.38540 6.94789 4004 ft 181 kts 342°
2026-04-21 16:12 43.40223 6.94199 4004 ft 189 kts 343°
2026-04-21 16:12 43.41505 6.93757 4006 ft 190 kts 343°
2026-04-21 16:12 43.42818 6.93495 4010 ft 192 kts 360°
2026-04-21 16:13 43.44113 6.93907 4004 ft 196 kts 22°
2026-04-21 16:13 43.45192 6.94957 3999 ft 183 kts 42°
2026-04-21 16:13 43.46083 6.96082 3992 ft 163 kts 39°
2026-04-21 16:13 43.46923 6.97141 4012 ft 174 kts 40°
2026-04-21 16:14 43.47879 6.98363 4035 ft 195 kts 41°
2026-04-21 16:14 43.48880 6.99655 4010 ft 198 kts 41°
2026-04-21 16:14 43.49877 7.00946 3909 ft 199 kts 41°
2026-04-21 16:14 43.50887 7.02254 3687 ft 198 kts 42°
2026-04-21 16:15 43.51887 7.03548 3441 ft 197 kts 42°
2026-04-21 16:15 43.52882 7.04839 3186 ft 195 kts 43°
2026-04-21 16:15 43.53861 7.06107 2928 ft 192 kts 44°
2026-04-21 16:15 43.54830 7.07365 2680 ft 190 kts 44°
2026-04-21 16:16 43.55785 7.08603 2424 ft 188 kts 45°
2026-04-21 16:16 43.56719 7.09817 2173 ft 186 kts 45°
2026-04-21 16:16 43.57661 7.11040 1928 ft 185 kts 45°
2026-04-21 16:16 43.58597 7.12256 1690 ft 185 kts 45°
2026-04-21 16:17 43.59529 7.13468 1433 ft 182 kts 44°
2026-04-21 16:17 43.60425 7.14632 1183 ft 170 kts 45°
2026-04-21 16:17 43.61246 7.15700 999 ft 155 kts 45°
2026-04-21 16:17 43.62006 7.16695 745 ft 147 kts 45°
2026-04-21 16:18 43.62740 7.17661 534 ft 144 kts 45°
2026-04-21 16:18 43.63461 7.18601 357 ft 140 kts 45°
2026-04-21 16:18 43.64150 7.19506 220 ft 138 kts 47°
2026-04-21 16:18 43.64831 7.20456 51 ft 140 kts 48°
2026-04-21 16:19 43.65455 7.21328 25 ft 107 kts 45°
2026-04-21 16:19 43.65860 7.21880 21 ft 48 kts 44°
2026-04-21 16:19 43.66101 7.22106 22 ft 37 kts 14°
2026-04-21 16:19 43.66281 7.22169 21 ft 23 kts 15°
2026-04-21 16:20 43.66390 7.22200 22 ft 7 kts
2026-04-21 16:20 43.66400 7.22198 22 ft 0 kts 354°
2026-04-21 16:21 43.66414 7.22194 23 ft 4 kts 343°
2026-04-21 16:21 43.66460 7.22152 22 ft 9 kts 319°
2026-04-21 16:22 43.66497 7.22104 21 ft 13 kts 315°
2026-04-21 16:22 43.66573 7.21998 21 ft 18 kts 315°
2026-04-21 16:22 43.66644 7.21888 21 ft 13 kts 288°
2026-04-21 16:22 43.66589 7.21777 23 ft 15 kts 225°
2026-04-21 16:23 43.66532 7.21698 22 ft 6 kts 225°
2026-04-21 16:23 43.66508 7.21666 21 ft 3 kts 225°
2026-04-21 16:23 43.66495 7.21648 21 ft 2 kts 225°
2026-04-21 16:23 43.66486 7.21635 21 ft 1 kts 225°
2026-04-21 16:24 43.66481 7.21628 21 ft 1 kts 225°
2026-04-21 16:24 43.66460 7.21600 21 ft 8 kts 225°
2026-04-21 16:24 43.66405 7.21523 21 ft 15 kts 225°
2026-04-21 16:24 43.66370 7.21426 21 ft 10 kts 321°
2026-04-21 16:25 43.66415 7.21409 21 ft 2 kts 349°
2026-04-21 16:25 43.66424 7.21407 21 ft 0 kts 350°
2026-04-21 16:25 43.66425 7.21407 21 ft 1 kts 350°
2026-04-21 16:25 43.66432 7.21405 22 ft 2 kts 350°
2026-04-21 16:26 43.66434 7.21404 23 ft 0 kts 350°